User: anonymous   Login
Location: Unspecified
(0.0000°N, 0.0000°E)
Time: 06:43:47
(UTC+00:00)
Language:

STARLINK-11106 [DTC] - Orbit

View from above orbital plane
View from above orbital plane
View from above satellite
View from above satellite

Ground track
Ground track

The orbit is defined by the following mean orbital elements,

1 59765U          26145.38787459 +.00000000 +00000-0 +33604-4 0 00004
2 59765  53.1578 187.8747 0000940  88.8144 271.2981 15.69706882    03
Epoch (UTC): 25 May 2026 09:18:32
Eccentricity: 0.0000940
inclination: 53.1578°
perigee height: 359 km
apogee height: 360 km
right ascension of ascending node: 187.8747°
argument of perigee: 88.8144°
revolutions per day: 15.69706882
mean anomaly at epoch: 271.2981°

The dashed part of the orbit path shows where the satellite is in the earth's shadow,  

DLR